EWG7DU EDDL-LOWW

Flight info

Callsign EWG7DU
Flight time 1h 23m
Altitude 35000
Route DODEN7Z/05R DODEN Y853 BOMBI DCT ESATI DCT BARSU DCT EKSOS DCT LULAR DCT RUDAP DCT BUDEX BUDEX2W
Aircraft A320/M-SDE3FGHIRWY/LB1

Departure

Time 2026-04-30 11:20
Airport Düsseldorf Airport (EDDL)

Arrival

Time 2026-04-30 12:44
Airport Vienna International Airport (LOWW)
Time Latitude Longitude Altitude Speed Heading
2026-04-30 10:37 51.28059 6.76708 127 ft 0 kts 276°
2026-04-30 11:09 51.28059 6.76711 130 ft 2 kts 275°
2026-04-30 11:09 51.28059 6.76747 129 ft 3 kts 255°
2026-04-30 11:09 51.28068 6.76780 125 ft 3 kts 225°
2026-04-30 11:09 51.28087 6.76802 125 ft 3 kts 202°
2026-04-30 11:10 51.28107 6.76813 125 ft 2 kts 197°
2026-04-30 11:10 51.28129 6.76823 126 ft 3 kts 194°
2026-04-30 11:10 51.28152 6.76831 129 ft 3 kts 190°
2026-04-30 11:10 51.28175 6.76837 129 ft 3 kts 187°
2026-04-30 11:11 51.28194 6.76840 130 ft 3 kts 186°
2026-04-30 11:11 51.28217 6.76845 130 ft 3 kts 186°
2026-04-30 11:11 51.28241 6.76849 130 ft 3 kts 186°
2026-04-30 11:11 51.28264 6.76853 130 ft 3 kts 186°
2026-04-30 11:12 51.28284 6.76857 130 ft 3 kts 189°
2026-04-30 11:12 51.28306 6.76868 128 ft 3 kts 212°
2026-04-30 11:12 51.28324 6.76891 125 ft 3 kts 231°
2026-04-30 11:12 51.28337 6.76918 126 ft 2 kts 232°
2026-04-30 11:13 51.28351 6.76947 123 ft 3 kts 232°
2026-04-30 11:13 51.28365 6.76976 125 ft 3 kts 233°
2026-04-30 11:13 51.28367 6.76980 126 ft 0 kts 233°
2026-04-30 11:15 51.28365 6.76976 125 ft 2 kts 232°
2026-04-30 11:15 51.28356 6.76957 123 ft 5 kts 233°
2026-04-30 11:16 51.28363 6.76881 124 ft 10 kts 314°
2026-04-30 11:16 51.28404 6.76829 125 ft 7 kts 322°
2026-04-30 11:16 51.28443 6.76781 126 ft 7 kts 323°
2026-04-30 11:16 51.28453 6.76711 126 ft 10 kts 252°
2026-04-30 11:17 51.28403 6.76595 124 ft 15 kts 232°
2026-04-30 11:17 51.28341 6.76465 122 ft 14 kts 232°
2026-04-30 11:17 51.28284 6.76346 125 ft 15 kts 233°
2026-04-30 11:17 51.28214 6.76198 127 ft 18 kts 233°
2026-04-30 11:18 51.28136 6.76035 128 ft 19 kts 233°
2026-04-30 11:18 51.27995 6.75738 129 ft 16 kts 232°
2026-04-30 11:18 51.27947 6.75604 128 ft 13 kts 268°
2026-04-30 11:19 51.27998 6.75524 125 ft 8 kts 336°
2026-04-30 11:19 51.28070 6.75483 124 ft 8 kts 352°
2026-04-30 11:19 51.28110 6.75513 124 ft 6 kts 45°
2026-04-30 11:19 51.28157 6.75612 125 ft 27 kts 53°
2026-04-30 11:20 51.28429 6.76181 125 ft 98 kts 52°
2026-04-30 11:20 51.28943 6.77267 134 ft 148 kts 52°
2026-04-30 11:20 51.29567 6.78570 736 ft 143 kts 57°
2026-04-30 11:20 51.30157 6.79839 1510 ft 142 kts 54°
2026-04-30 11:21 51.30784 6.81166 1910 ft 161 kts 54°
2026-04-30 11:21 51.31511 6.82702 2334 ft 186 kts 56°
2026-04-30 11:21 51.32345 6.84467 2802 ft 211 kts 56°
2026-04-30 11:21 51.33281 6.86446 3238 ft 235 kts 55°
2026-04-30 11:22 51.34268 6.88603 3936 ft 245 kts 57°
2026-04-30 11:22 51.35135 6.90960 4789 ft 247 kts 75°
2026-04-30 11:22 51.35233 6.93620 5624 ft 246 kts 99°
2026-04-30 11:22 51.34960 6.96334 6532 ft 249 kts 99°
2026-04-30 11:23 51.34674 6.99089 7370 ft 253 kts 98°
2026-04-30 11:23 51.34386 7.01894 8160 ft 258 kts 98°
2026-04-30 11:23 51.33800 7.07651 9876 ft 266 kts 98°
2026-04-30 11:24 51.33499 7.10591 10656 ft 273 kts 98°
2026-04-30 11:24 51.33174 7.13665 10950 ft 296 kts 101°
2026-04-30 11:24 51.32489 7.16892 11356 ft 315 kts 114°
2026-04-30 11:25 51.29731 7.22504 12761 ft 331 kts 132°
2026-04-30 11:25 51.28070 7.25123 13503 ft 335 kts 132°
2026-04-30 11:25 51.24736 7.30399 14858 ft 343 kts 132°
2026-04-30 11:26 51.21303 7.35835 16084 ft 351 kts 132°
2026-04-30 11:26 51.19556 7.38590 16729 ft 355 kts 132°
2026-04-30 11:26 51.17786 7.41374 17368 ft 359 kts 132°
2026-04-30 11:27 51.15999 7.44175 17998 ft 362 kts 132°
2026-04-30 11:27 51.14187 7.46992 18612 ft 366 kts 132°
2026-04-30 11:27 51.12373 7.49779 19146 ft 369 kts 132°
2026-04-30 11:27 51.10512 7.52616 19687 ft 372 kts 132°
2026-04-30 11:28 51.06735 7.58364 20773 ft 379 kts 132°
2026-04-30 11:28 51.04822 7.61268 21314 ft 382 kts 132°
2026-04-30 11:28 51.02892 7.64199 21850 ft 385 kts 132°
2026-04-30 11:29 51.00948 7.67152 22387 ft 389 kts 132°
2026-04-30 11:29 50.98987 7.70131 22911 ft 392 kts 132°
2026-04-30 11:29 50.94700 7.75615 23921 ft 404 kts 144°
2026-04-30 11:30 50.89924 7.80305 24763 ft 409 kts 144°
2026-04-30 11:30 50.87495 7.82687 25199 ft 411 kts 144°
2026-04-30 11:30 50.85060 7.85080 25613 ft 413 kts 143°
2026-04-30 11:31 50.82609 7.87489 26016 ft 415 kts 143°
2026-04-30 11:31 50.80176 7.89875 26406 ft 417 kts 143°
2026-04-30 11:31 50.77700 7.92300 26804 ft 419 kts 143°
2026-04-30 11:31 50.75216 7.94729 27187 ft 421 kts 143°
2026-04-30 11:32 50.72714 7.97170 27559 ft 423 kts 143°
2026-04-30 11:32 50.70205 7.99613 27928 ft 425 kts 143°
2026-04-30 11:32 50.67680 8.02074 28310 ft 427 kts 143°
2026-04-30 11:33 50.62633 8.06993 29008 ft 431 kts 143°
2026-04-30 11:33 50.60108 8.09560 29336 ft 430 kts 138°
2026-04-30 11:33 50.57790 8.12520 29658 ft 429 kts 134°
2026-04-30 11:33 50.55496 8.15538 29980 ft 431 kts 134°
2026-04-30 11:34 50.53183 8.18574 30298 ft 433 kts 134°
2026-04-30 11:34 50.50863 8.21616 30582 ft 435 kts 134°
2026-04-30 11:34 50.48534 8.24663 30838 ft 437 kts 134°
2026-04-30 11:34 50.46225 8.27681 31083 ft 439 kts 134°
2026-04-30 11:35 50.43876 8.30744 31328 ft 440 kts 135°
2026-04-30 11:35 50.41512 8.33816 31547 ft 442 kts 135°
2026-04-30 11:35 50.39139 8.36901 31781 ft 444 kts 135°
2026-04-30 11:35 50.36766 8.39985 32102 ft 443 kts 135°
2026-04-30 11:36 50.34398 8.43058 32407 ft 442 kts 135°
2026-04-30 11:36 50.32030 8.46132 32704 ft 442 kts 135°
2026-04-30 11:36 50.29661 8.49208 33016 ft 442 kts 135°
2026-04-30 11:36 50.27325 8.52235 33322 ft 442 kts 136°
2026-04-30 11:37 50.24954 8.55298 33627 ft 442 kts 136°
2026-04-30 11:37 50.22586 8.58346 33933 ft 442 kts 136°
2026-04-30 11:37 50.20209 8.61399 34234 ft 442 kts 136°
2026-04-30 11:37 50.17836 8.64447 34499 ft 442 kts 136°
2026-04-30 11:38 50.15456 8.67496 34753 ft 442 kts 136°
2026-04-30 11:38 50.13076 8.70539 34988 ft 443 kts 136°
2026-04-30 11:38 50.10716 8.73600 35208 ft 442 kts 133°
2026-04-30 11:38 50.08690 8.77081 35368 ft 436 kts 122°
2026-04-30 11:39 50.07225 8.81123 35409 ft 425 kts 108°
2026-04-30 11:39 50.06355 8.85483 35404 ft 419 kts 98°
2026-04-30 11:39 50.05967 8.94417 35406 ft 413 kts 85°
2026-04-30 11:40 50.06091 9.03364 35401 ft 414 kts 86°
2026-04-30 11:40 50.06207 9.12262 35402 ft 414 kts 86°
2026-04-30 11:41 50.06062 9.21212 35397 ft 417 kts 96°
2026-04-30 11:41 50.05061 9.30111 35399 ft 417 kts 96°
2026-04-30 11:42 50.04046 9.38996 35394 ft 417 kts 96°
2026-04-30 11:42 50.03033 9.47821 35398 ft 417 kts 96°
2026-04-30 11:43 50.02009 9.56707 35394 ft 417 kts 96°
2026-04-30 11:43 50.00974 9.65575 35400 ft 417 kts 96°
2026-04-30 11:44 49.99937 9.74444 35398 ft 417 kts 96°
2026-04-30 11:44 49.98895 9.83310 35405 ft 417 kts 96°
2026-04-30 11:45 49.97850 9.92111 35410 ft 417 kts 96°
2026-04-30 11:45 49.96794 10.00968 35419 ft 417 kts 96°
2026-04-30 11:46 49.95730 10.09811 35424 ft 417 kts 96°
2026-04-30 11:46 49.94659 10.18655 35428 ft 416 kts 96°
2026-04-30 11:47 49.93579 10.27425 35427 ft 416 kts 96°
2026-04-30 11:47 49.92493 10.36242 35430 ft 416 kts 97°
2026-04-30 11:48 49.90670 10.44825 35428 ft 422 kts 107°
2026-04-30 11:48 49.88482 10.53271 35427 ft 422 kts 107°
2026-04-30 11:49 49.86307 10.61646 35423 ft 422 kts 107°
2026-04-30 11:49 49.84119 10.70070 35426 ft 421 kts 107°
2026-04-30 11:50 49.81919 10.78482 35425 ft 421 kts 107°
2026-04-30 11:50 49.79714 10.86885 35428 ft 421 kts 107°
2026-04-30 11:51 49.77511 10.95276 35429 ft 421 kts 107°
2026-04-30 11:51 49.75316 11.03602 35436 ft 420 kts 107°
2026-04-30 11:52 49.73106 11.11960 35435 ft 420 kts 107°
2026-04-30 11:52 49.70885 11.20312 35440 ft 420 kts 107°
2026-04-30 11:53 49.68680 11.28584 35438 ft 419 kts 107°
2026-04-30 11:53 49.66452 11.36890 35446 ft 419 kts 107°
2026-04-30 11:54 49.64331 11.45241 35440 ft 415 kts 103°
2026-04-30 11:54 49.62614 11.53650 35471 ft 413 kts 101°
2026-04-30 11:55 49.60970 11.62134 35479 ft 412 kts 101°
2026-04-30 11:55 49.59247 11.70567 35496 ft 412 kts 102°
2026-04-30 11:56 49.57473 11.78966 35503 ft 412 kts 102°
2026-04-30 11:56 49.55705 11.87288 35510 ft 411 kts 102°
2026-04-30 11:57 49.53934 11.95653 35507 ft 411 kts 102°
2026-04-30 11:57 49.52159 12.04016 35506 ft 410 kts 102°
2026-04-30 11:58 49.50394 12.12287 35493 ft 409 kts 102°
2026-04-30 11:58 49.48612 12.20595 35485 ft 408 kts 102°
2026-04-30 11:59 49.46831 12.28871 35471 ft 407 kts 102°
2026-04-30 11:59 49.45048 12.37130 35464 ft 406 kts 101°
2026-04-30 12:00 49.43259 12.45369 35460 ft 406 kts 102°
2026-04-30 12:00 49.41477 12.53527 35464 ft 406 kts 101°
2026-04-30 12:01 49.39685 12.61733 35443 ft 405 kts 101°
2026-04-30 12:01 49.37889 12.69927 35447 ft 405 kts 102°
2026-04-30 12:02 49.36072 12.78108 35463 ft 405 kts 102°
2026-04-30 12:02 49.34130 12.86228 35469 ft 406 kts 103°
2026-04-30 12:03 49.31116 12.98296 35463 ft 405 kts 103°
2026-04-30 12:04 49.29121 13.06363 35467 ft 405 kts 103°
2026-04-30 12:04 49.27149 13.14371 35462 ft 405 kts 103°
2026-04-30 12:05 49.25152 13.22429 35461 ft 405 kts 103°
2026-04-30 12:05 49.23127 13.30471 35456 ft 405 kts 104°
2026-04-30 12:06 49.20986 13.38453 35461 ft 406 kts 104°
2026-04-30 12:06 49.18822 13.46356 35462 ft 406 kts 104°
2026-04-30 12:07 49.16652 13.54321 35464 ft 406 kts 104°
2026-04-30 12:07 49.14490 13.62294 35464 ft 406 kts 104°
2026-04-30 12:08 49.12329 13.70264 35461 ft 406 kts 104°
2026-04-30 12:08 49.10176 13.78161 35461 ft 406 kts 104°
2026-04-30 12:09 49.07994 13.86125 35463 ft 406 kts 104°
2026-04-30 12:09 49.05806 13.94096 35461 ft 407 kts 104°
2026-04-30 12:10 49.03629 14.01987 35449 ft 407 kts 105°
2026-04-30 12:10 49.01430 14.09932 35448 ft 407 kts 105°
2026-04-30 12:11 48.99214 14.17900 35242 ft 409 kts 105°
2026-04-30 12:11 48.98104 14.21884 35005 ft 407 kts 105°
2026-04-30 12:11 48.97002 14.25830 34571 ft 403 kts 104°
2026-04-30 12:11 48.95923 14.29688 33986 ft 400 kts 104°
2026-04-30 12:12 48.94703 14.33500 33470 ft 403 kts 111°
2026-04-30 12:12 48.93117 14.37050 32900 ft 408 kts 118°
2026-04-30 12:12 48.91386 14.40461 32334 ft 406 kts 118°
2026-04-30 12:12 48.89650 14.43887 31776 ft 412 kts 118°
2026-04-30 12:13 48.87906 14.47344 31216 ft 413 kts 118°
2026-04-30 12:13 48.86161 14.50796 30653 ft 411 kts 118°
2026-04-30 12:13 48.84447 14.54183 30047 ft 408 kts 118°
2026-04-30 12:13 48.82723 14.57584 29508 ft 405 kts 118°
2026-04-30 12:14 48.81005 14.60966 28969 ft 402 kts 118°
2026-04-30 12:14 48.79302 14.64312 28422 ft 400 kts 118°
2026-04-30 12:14 48.77605 14.67642 27901 ft 397 kts 119°
2026-04-30 12:14 48.75917 14.70950 27369 ft 395 kts 119°
2026-04-30 12:15 48.74240 14.74230 26860 ft 393 kts 120°
2026-04-30 12:15 48.72590 14.77450 26353 ft 391 kts 120°
2026-04-30 12:15 48.70928 14.80690 25879 ft 389 kts 120°
2026-04-30 12:15 48.69276 14.83917 25406 ft 386 kts 120°
2026-04-30 12:16 48.67632 14.87131 24942 ft 385 kts 121°
2026-04-30 12:16 48.65999 14.90322 24480 ft 383 kts 121°
2026-04-30 12:16 48.64365 14.93503 24022 ft 381 kts 121°
2026-04-30 12:16 48.62739 14.96659 23514 ft 379 kts 121°
2026-04-30 12:17 48.59647 15.02953 22620 ft 369 kts 114°
2026-04-30 12:17 48.58569 15.06405 22185 ft 359 kts 104°
2026-04-30 12:17 48.57889 15.09995 21745 ft 354 kts 98°
2026-04-30 12:18 48.57282 15.13590 21305 ft 352 kts 98°
2026-04-30 12:18 48.56671 15.17161 20860 ft 351 kts 99°
2026-04-30 12:18 48.56056 15.20719 20416 ft 350 kts 99°
2026-04-30 12:18 48.55441 15.24263 19966 ft 348 kts 99°
2026-04-30 12:19 48.54829 15.27788 19513 ft 347 kts 99°
2026-04-30 12:19 48.54223 15.31256 19069 ft 346 kts 99°
2026-04-30 12:19 48.53608 15.34764 18606 ft 345 kts 100°
2026-04-30 12:19 48.52996 15.38260 18133 ft 343 kts 100°
2026-04-30 12:20 48.52390 15.41734 17695 ft 341 kts 100°
2026-04-30 12:20 48.51939 15.45204 17283 ft 334 kts 91°
2026-04-30 12:20 48.51760 15.48680 17102 ft 332 kts 90°
2026-04-30 12:20 48.51571 15.52156 16870 ft 332 kts 91°
2026-04-30 12:21 48.51374 15.55621 16634 ft 331 kts 91°
2026-04-30 12:21 48.51175 15.59026 16407 ft 330 kts 91°
2026-04-30 12:21 48.50975 15.62464 16172 ft 329 kts 91°
2026-04-30 12:21 48.50779 15.65894 15940 ft 328 kts 91°
2026-04-30 12:22 48.50583 15.69316 15707 ft 327 kts 91°
2026-04-30 12:22 48.50385 15.72726 15478 ft 326 kts 91°
2026-04-30 12:22 48.50187 15.76131 15244 ft 325 kts 91°
2026-04-30 12:22 48.49989 15.79519 15013 ft 324 kts 91°
2026-04-30 12:23 48.49791 15.82852 14792 ft 323 kts 91°
2026-04-30 12:23 48.49590 15.86218 14559 ft 322 kts 91°
2026-04-30 12:23 48.49390 15.89568 14325 ft 321 kts 92°
2026-04-30 12:23 48.49189 15.92914 14087 ft 320 kts 92°
2026-04-30 12:24 48.48987 15.96247 13857 ft 319 kts 92°
2026-04-30 12:24 48.48786 15.99566 13629 ft 317 kts 92°
2026-04-30 12:24 48.48583 16.02876 13407 ft 316 kts 92°
2026-04-30 12:24 48.48384 16.06123 13183 ft 315 kts 92°
2026-04-30 12:25 48.48184 16.09414 12970 ft 314 kts 92°
2026-04-30 12:25 48.48006 16.12690 12736 ft 313 kts 91°
2026-04-30 12:25 48.47872 16.15946 12479 ft 310 kts 90°
2026-04-30 12:25 48.47755 16.19179 12096 ft 307 kts 90°
2026-04-30 12:26 48.47642 16.22401 11850 ft 308 kts 90°
2026-04-30 12:26 48.47530 16.25579 11602 ft 307 kts 90°
2026-04-30 12:26 48.47416 16.28783 11348 ft 306 kts 90°
2026-04-30 12:26 48.47298 16.31975 11100 ft 304 kts 90°
2026-04-30 12:27 48.47175 16.35149 10853 ft 303 kts 90°
2026-04-30 12:27 48.47050 16.38314 10603 ft 302 kts 91°
2026-04-30 12:27 48.46923 16.41459 10334 ft 298 kts 91°
2026-04-30 12:27 48.46795 16.44518 10204 ft 287 kts 91°
2026-04-30 12:28 48.46671 16.47466 10045 ft 278 kts 91°
2026-04-30 12:28 48.46553 16.50299 9855 ft 271 kts 91°
2026-04-30 12:28 48.46185 16.53094 9740 ft 276 kts 108°
2026-04-30 12:28 48.45168 16.55558 9535 ft 281 kts 130°
2026-04-30 12:29 48.43591 16.57325 9318 ft 287 kts 152°
2026-04-30 12:29 48.41683 16.58266 9099 ft 290 kts 161°
2026-04-30 12:29 48.39742 16.59074 8869 ft 289 kts 161°
2026-04-30 12:29 48.37808 16.59883 8661 ft 288 kts 161°
2026-04-30 12:30 48.35883 16.60689 8439 ft 287 kts 161°
2026-04-30 12:30 48.33980 16.61488 8223 ft 286 kts 161°
2026-04-30 12:30 48.32066 16.62295 8009 ft 285 kts 161°
2026-04-30 12:30 48.30164 16.63097 7777 ft 284 kts 161°
2026-04-30 12:31 48.28269 16.63896 7579 ft 282 kts 161°
2026-04-30 12:31 48.26379 16.64693 7364 ft 281 kts 161°
2026-04-30 12:31 48.24499 16.65485 7159 ft 281 kts 161°
2026-04-30 12:31 48.22626 16.66274 6951 ft 279 kts 161°
2026-04-30 12:32 48.20771 16.67054 6786 ft 272 kts 161°
2026-04-30 12:32 48.19014 16.67787 6719 ft 259 kts 161°
2026-04-30 12:32 48.17271 16.68515 6671 ft 264 kts 161°
2026-04-30 12:32 48.15493 16.69260 6623 ft 267 kts 161°
2026-04-30 12:33 48.13705 16.70007 6568 ft 267 kts 161°
2026-04-30 12:33 48.11918 16.70751 6516 ft 267 kts 161°
2026-04-30 12:33 48.10130 16.71496 6461 ft 267 kts 161°
2026-04-30 12:33 48.08345 16.72239 6408 ft 266 kts 161°
2026-04-30 12:34 48.06561 16.72983 6348 ft 266 kts 161°
2026-04-30 12:34 48.04798 16.73719 6298 ft 266 kts 161°
2026-04-30 12:34 48.03011 16.74466 6247 ft 267 kts 161°
2026-04-30 12:34 48.01225 16.75207 6185 ft 266 kts 161°
2026-04-30 12:35 47.99468 16.75932 6062 ft 256 kts 162°
2026-04-30 12:35 47.97773 16.76632 5899 ft 249 kts 162°
2026-04-30 12:35 47.96120 16.77311 5721 ft 246 kts 162°
2026-04-30 12:35 47.94470 16.77991 5538 ft 246 kts 162°
2026-04-30 12:36 47.92823 16.78672 5358 ft 246 kts 162°
2026-04-30 12:36 47.91195 16.79348 5108 ft 246 kts 163°
2026-04-30 12:36 47.89505 16.79631 4843 ft 246 kts 188°
2026-04-30 12:36 47.87865 16.78954 4575 ft 244 kts 210°
2026-04-30 12:37 47.86651 16.77273 4321 ft 237 kts 241°
2026-04-30 12:37 47.86067 16.75065 4075 ft 224 kts 268°
2026-04-30 12:37 47.85998 16.72783 3991 ft 220 kts 274°
2026-04-30 12:37 47.86210 16.70592 3988 ft 205 kts 297°
2026-04-30 12:38 47.86958 16.68908 3999 ft 189 kts 322°
2026-04-30 12:38 47.88027 16.67908 3991 ft 181 kts 344°
2026-04-30 12:38 47.89235 16.67390 4002 ft 182 kts 347°
2026-04-30 12:38 47.90459 16.66878 4006 ft 183 kts 347°
2026-04-30 12:39 47.91683 16.66365 4022 ft 183 kts 346°
2026-04-30 12:39 47.92904 16.65853 3911 ft 181 kts 346°
2026-04-30 12:39 47.94091 16.65354 3721 ft 174 kts 346°
2026-04-30 12:39 47.95236 16.64873 3495 ft 168 kts 347°
2026-04-30 12:40 47.96350 16.64405 3255 ft 164 kts 347°
2026-04-30 12:40 47.97429 16.63952 3040 ft 162 kts 346°
2026-04-30 12:40 47.98509 16.63498 2843 ft 162 kts 346°
2026-04-30 12:40 47.99600 16.63039 2590 ft 162 kts 346°
2026-04-30 12:41 48.00689 16.62581 2368 ft 162 kts 346°
2026-04-30 12:41 48.01759 16.62130 2159 ft 156 kts 347°
2026-04-30 12:41 48.02764 16.61705 1946 ft 143 kts 347°
2026-04-30 12:41 48.03697 16.61320 1721 ft 136 kts 347°
2026-04-30 12:42 48.04593 16.60959 1489 ft 131 kts 347°
2026-04-30 12:42 48.05443 16.60568 1338 ft 129 kts 346°
2026-04-30 12:42 48.06304 16.60219 1220 ft 127 kts 347°
2026-04-30 12:42 48.07160 16.59856 1021 ft 129 kts 346°
2026-04-30 12:43 48.08021 16.59491 854 ft 128 kts 346°
2026-04-30 12:43 48.08873 16.59131 686 ft 126 kts 347°
2026-04-30 12:43 48.09698 16.58787 616 ft 112 kts 345°
2026-04-30 12:43 48.10292 16.58532 622 ft 68 kts 344°
2026-04-30 12:44 48.10660 16.58376 610 ft 45 kts 344°
2026-04-30 12:44 48.10912 16.58266 621 ft 28 kts 337°
2026-04-30 12:44 48.11008 16.58149 624 ft 11 kts 308°
2026-04-30 12:44 48.11052 16.58040 612 ft 13 kts 295°
2026-04-30 12:45 48.11096 16.57907 618 ft 15 kts 297°
2026-04-30 12:45 48.11145 16.57755 619 ft 16 kts 296°
2026-04-30 12:45 48.11191 16.57614 617 ft 16 kts 296°
2026-04-30 12:45 48.11244 16.57453 619 ft 18 kts 296°
2026-04-30 12:46 48.11302 16.57271 617 ft 20 kts 296°
2026-04-30 12:46 48.11367 16.57073 614 ft 22 kts 296°
2026-04-30 12:46 48.11437 16.56857 618 ft 24 kts 296°
2026-04-30 12:46 48.11512 16.56627 617 ft 25 kts 296°
2026-04-30 12:47 48.11586 16.56398 610 ft 21 kts 296°
2026-04-30 12:47 48.11653 16.56193 622 ft 23 kts 296°
2026-04-30 12:47 48.11727 16.55969 617 ft 25 kts 297°
2026-04-30 12:47 48.11790 16.55774 618 ft 19 kts 295°
2026-04-30 12:48 48.11843 16.55614 618 ft 14 kts 296°
2026-04-30 12:48 48.11879 16.55494 615 ft 8 kts 288°
2026-04-30 12:48 48.11910 16.55444 613 ft 7 kts 351°
2026-04-30 12:48 48.11960 16.55471 615 ft 9 kts 25°
2026-04-30 12:49 48.11991 16.55521 614 ft 7 kts 86°
2026-04-30 12:49 48.11988 16.55560 618 ft 2 kts 99°
2026-04-30 12:49 48.11986 16.55580 612 ft 2 kts 99°
2026-04-30 12:49 48.11984 16.55592 610 ft 0 kts 101°